星链-32271 (STARLINK-32271)

导读

STARLINK-32271是美国太空探索技术公司SpaceX推出的星链Starlink低轨通信卫星星座的一员,于2024年8月4日由猎鹰九号火箭在范登堡太空军基地发射升空,属于二代星链v2.0 mini卫星。它运行在近地轨道,旨在为全球尤其是偏远地区提供高速低延迟宽带互联网服务,助力星链星座实现全球网络覆盖的目标。

Basic Information
目录编号:
60368
目录名称:
STARLINK-32271
国际标识:
2024-138P
轨道中心:
EARTH
卫星名称:
星链-32271 (STARLINK-32271)
卫星全名:
星链-32271 (STARLINK-32271)
卫星状态:
在轨 (已飞行761 天)
发射日期:
2024-08-04 UTC
国别 :
美国 (US)
星等 :
--
Orbit Information
数据来源 国际轨道数据
星历时间: 2026-09-04T04:48:22+0800
15小时前
查看轨道信息
半长轴: 6840.884km
偏心率: 0.000137
轨道倾角: 53.160°
近地点辐角 91.607°
升交点赤经 201.544°
平近点角 268.509°
近地点: 461.809km
远地点: 463.685km
周期: 93.849分钟
每日圈数: 15.343856
Detailed Information
卫星平台:
Starlink v2.0 mini
运营商:
太空探索技术公司
运营商所在国:
美国
制造商(研发单位):
太空探索技术公司
制造商所在国:
美国
使用方式:
暂无
Satellite Introduction
星链(Starlink)计划是由太空探索技术公司(SpaceX)提出的一个巨型低轨卫星互联网星座项目,计划在2019年至2024年间在太空搭建由约1.2万颗卫星组成的“星链”网络,其中1584颗将部署在地球上空550千米处的近地轨道,并从2020年开始工作。该卫星仍在工作。
2D Orbit Map
3D Orbit Map
Orbit Altitude Analysis Chart
Orbit Inclination Analysis Chart
Orbit Comprehensive Analysis Chart
View Comprehensive Chart
Conjunction Data List
Event ID Objects TCA Miss Dist (km) Collision Risk Probability Collision Risk Index (CRI) Action
CDM_260906-065806-036806-817821
2026-09-06T
06:58:30+0000
0.637 km
远距离
5.364144E-5 中风险 0.7
CDM_260906-210306-036806-550621
2026-09-06T
21:03:00+0000
0.712 km
远距离
3.604947E-5 中风险 0.66
CDM_260906-122606-036806-817821
2026-09-06T
12:26:46+0000
0.824 km
远距离
2.371544E-5 中风险 0.63
CDM_260905-185706-036806-403821
2026-09-05T
18:57:24+0000
1.544 km
极远距离
5.705531E-6 低风险 0.5
CDM_260905-082906-036806-265621
2026-09-05T
08:29:00+0000
2.399 km
极远距离
1.825186E-6 低风险 0.4
CDM_260906-052406-036806-817821
2026-09-06T
05:24:42+0000
2.460 km
极远距离
9.389714E-7 极低风险 0.34
CDM_260906-140006-036806-817821
2026-09-06T
14:00:34+0000
2.629 km
极远距离
8.449028E-7 极低风险 0.34